Myrtle Beach, SC

6:14 PM EST on February 22, 2017 (GMT -0500)
Myrtle Beach International

Weather History for KMYR - September, 2013

Change the Weather History Date:

Monday, September 16, 2013

  Actual Average Record
Temperature  
Mean Temperature 80 °F -  
Max Temperature 87 °F 80 °F 93 °F (1990)
Min Temperature 73 °F 64 °F 55 °F (2000)
Cooling Degree Days 15    
Growing Degree Days 30 (Base 50)    
Moisture  
Dew Point 71 °F    
Average Humidity 76    
Maximum Humidity 94    
Minimum Humidity 55    
Precipitation  
Precipitation 0.00 in - - ()
Sea Level Pressure  
Sea Level Pressure 30.11 in    
Wind  
Wind Speed 7 mph (South)    
Max Wind Speed 14 mph    
Max Gust Speed 21 mph    
Visibility 10 miles    
Events Thunderstorm    
Averages and records for this station are not official NWS values.
T = Trace of Precipitation, MM = Missing Value Source: NWS Daily Summary

Daily Weather History Graph

Daily Weather History Graph

Search for Another Location

Airport or City:

Trip Planner

Search our weather history database for the weather conditions in past years. The results will help you decide how hot, cold, wet, or windy it might be!

Date:

Astronomy

Sep. 16, 2013 Rise Set
Actual Time 6:59 AM EDT 7:20 PM EDT
Civil Twilight 6:34 AM EDT 7:45 PM EDT
Nautical Twilight 6:05 AM EDT 8:14 PM EDT
Astronomical Twilight 5:36 AM EDT 8:44 PM EDT
Moon 5:22 PM EDT (9/16) 3:51 AM EDT (9/16)
Length of Visible Light 13h 10m
Length of Day
12h 20m
Waxing Gibbous, 90% of the Moon is Illuminated
Sep 16
Waxing Gibbous
Sep 19
Full
Sep 26
Last Quarter
Oct 4
New
Oct 11
First Quarter

Hourly Weather History & Observations

Time (EDT) Temp. Heat Index Dew Point Humidity Pressure Visibility Wind Dir Wind Speed Gust Speed Precip Events Conditions
12:15 AM 78.8 °F - 71.6 °F 78% 30.15 in 10.0 mi ESE 8.1 mph - N/A   Scattered Clouds
12:35 AM 78.8 °F - 71.6 °F 78% 30.16 in 10.0 mi SE 9.2 mph - N/A   Mostly Cloudy
12:55 AM 78.8 °F - 71.6 °F 78% 30.15 in 10.0 mi ESE 9.2 mph - N/A   Mostly Cloudy
1:15 AM 78.8 °F - 71.6 °F 78% 30.15 in 10.0 mi SE 8.1 mph - N/A   Scattered Clouds
1:35 AM 78.8 °F - 71.6 °F 78% 30.14 in 10.0 mi SE 10.4 mph - N/A   Clear
1:55 AM 78.8 °F - 71.6 °F 78% 30.14 in 10.0 mi SSE 10.4 mph - N/A   Scattered Clouds
2:15 AM 78.8 °F - 71.6 °F 78% 30.14 in 10.0 mi SSE 12.7 mph - N/A   Scattered Clouds
2:35 AM 78.8 °F - 71.6 °F 78% 30.14 in 10.0 mi SSE 11.5 mph - N/A   Partly Cloudy
2:55 AM 78.8 °F - 71.6 °F 78% 30.13 in 10.0 mi SSE 13.8 mph - N/A   Partly Cloudy
3:15 AM 78.8 °F - 71.6 °F 78% 30.13 in 10.0 mi SSE 11.5 mph - N/A   Clear
3:35 AM 78.8 °F - 71.6 °F 78% 30.13 in 10.0 mi South 8.1 mph - N/A   Partly Cloudy
3:55 AM 78.8 °F - 71.6 °F 78% 30.13 in 10.0 mi South 6.9 mph - N/A   Mostly Cloudy
4:15 AM 78.8 °F - 71.6 °F 78% 30.12 in 10.0 mi South 6.9 mph - N/A   Mostly Cloudy
4:35 AM 78.8 °F - 71.6 °F 78% 30.12 in 10.0 mi South 5.8 mph - N/A   Mostly Cloudy
4:55 AM 78.8 °F - 71.6 °F 78% 30.12 in 10.0 mi South 4.6 mph - N/A   Mostly Cloudy
5:15 AM 75.2 °F - 69.8 °F 83% 30.13 in 10.0 mi Calm Calm - N/A   Overcast
5:35 AM 75.2 °F - 71.6 °F 89% 30.13 in 10.0 mi Calm Calm - N/A   Mostly Cloudy
5:50 AM 73.4 °F - 71.6 °F 94% 30.11 in 10.0 mi Calm Calm - N/A   Partly Cloudy
6:45 AM 73.4 °F - 69.8 °F 88% 30.10 in 10.0 mi Calm Calm - N/A   Scattered Clouds
7:45 AM 73.4 °F - 71.6 °F 94% 30.12 in 10.0 mi Calm Calm - N/A   Scattered Clouds
8:45 AM 80.6 °F 85.4 °F 73.4 °F 79% 30.13 in 10.0 mi Calm Calm - N/A   Scattered Clouds
9:45 AM 84.2 °F 90.9 °F 73.4 °F 70% 30.10 in 10.0 mi WSW 9.2 mph - N/A   Scattered Clouds
10:45 AM 80.6 °F 84.6 °F 71.6 °F 74% 30.13 in 10.0 mi SW 5.8 mph - N/A   Mostly Cloudy
11:45 AM 82.4 °F 86.3 °F 69.8 °F 66% 30.14 in 10.0 mi West 6.9 mph - N/A   Clear
12:33 PM 84.2 °F 86.6 °F 66.2 °F 55% 30.11 in 10.0 mi NW 9.2 mph - N/A   Clear
1:50 PM 87.8 °F 92.6 °F 69.8 °F 55% 30.08 in 10.0 mi WNW 8.1 mph - N/A   Scattered Clouds
2:45 PM 84.2 °F 89.6 °F 71.6 °F 66% 30.06 in 10.0 mi NW 6.9 mph - N/A   Mostly Cloudy
3:05 PM 82.4 °F 86.3 °F 69.8 °F 66% 30.05 in 10.0 mi South 11.5 mph 20.7 mph N/A   Mostly Cloudy
3:45 PM 86.0 °F 91.8 °F 71.6 °F 62% 30.03 in 10.0 mi SSW 10.4 mph - N/A   Mostly Cloudy
4:45 PM 87.8 °F 93.8 °F 71.6 °F 58% 30.03 in 10.0 mi WSW 8.1 mph - N/A   Scattered Clouds
5:50 PM 84.2 °F 89.6 °F 71.6 °F 66% 30.04 in 10.0 mi Variable 5.8 mph - N/A   Scattered Clouds
6:45 PM 78.8 °F - 69.8 °F 74% 30.06 in 10.0 mi Variable 5.8 mph - N/A Thunderstorm Scattered Clouds
6:50 PM 84.2 °F 89.6 °F 71.6 °F 66% 30.04 in 10.0 mi Variable 5.8 mph - N/A   Scattered Clouds
9:45 PM 75.2 °F - 69.8 °F 83% 30.09 in 10.0 mi Calm Calm - N/A   Partly Cloudy
11:15 PM 73.4 °F - 69.8 °F 88% 30.11 in 10.0 mi ENE 3.5 mph - N/A   Partly Cloudy
11:35 PM 73.4 °F - 68.0 °F 83% 30.12 in 10.0 mi Calm Calm - N/A   Mostly Cloudy
11:55 PM 75.2 °F - 69.8 °F 83% 30.12 in 10.0 mi NE 6.9 mph - N/A   Overcast